Hulett, WY

7:16 PM MDT on August 22, 2017 (GMT -0600)
Hulett

Weather History for KW43 - April, 2014

Change the Weather History Date:

Sunday, April 27, 2014

  Actual Average (KEFC) Record (KEFC)
Temperature  
Mean Temperature 42 °F -  
Max Temperature 51 °F 60 °F 90 °F (1952)
Min Temperature 33 °F 36 °F 18 °F (1950)
Degree Days  
Heating Degree Days 23    
Moisture  
Dew Point 35 °F    
Average Humidity 90    
Maximum Humidity 100    
Minimum Humidity 66    
Precipitation  
Precipitation 0.00 in - - ()
Sea Level Pressure  
Sea Level Pressure 29.53 in    
Wind  
Wind Speed 7 mph (NNW)    
Max Wind Speed 17 mph    
Max Gust Speed 22 mph    
Visibility 6 miles    
Events Rain , Snow , Thunderstorm    
Averages and records for this station are not official NWS values.
T = Trace of Precipitation, MM = Missing Value Source: NWS Daily Summary

Daily Weather History Graph

Daily Weather History Graph

Search for Another Location

Airport or City:

Trip Planner

Search our weather history database for the weather conditions in past years. The results will help you decide how hot, cold, wet, or windy it might be!

Date:

Astronomy

Apr. 27, 2014 Rise Set
Actual Time 5:54 AM MDT 7:58 PM MDT
Civil Twilight 5:22 AM MDT 8:30 PM MDT
Nautical Twilight 4:43 AM MDT 9:09 PM MDT
Astronomical Twilight 4:00 AM MDT 9:52 PM MDT
Moon 5:01 AM MDT (4/27) 6:31 PM MDT (4/27)
Length of Visible Light 15h 07m
Length of Day
14h 03m
Waning Crescent, 3% of the Moon is Illuminated
Apr 27
Waning Crescent
Apr 29
New
May 6
First Quarter
May 14
Full
May 21
Last Quarter

Hourly Weather History & Observations

Time (MDT) Temp. Windchill Dew Point Humidity Pressure Visibility Wind Dir Wind Speed Gust Speed Precip Events Conditions
12:15 AM 51.8 °F - 41.0 °F 67% 29.43 in 10.0 mi ENE 8.1 mph - N/A   Clear
12:35 AM 50.0 °F - 39.2 °F 66% 29.44 in 10.0 mi East 5.8 mph - N/A   Mostly Cloudy
12:55 AM 48.2 °F - 37.4 °F 66% 29.43 in 10.0 mi East 3.5 mph - N/A   Overcast
1:15 AM 48.2 °F - 37.4 °F 66% 29.42 in 10.0 mi ENE 6.9 mph - N/A   Overcast
1:35 AM 46.4 °F 42.9 °F 35.6 °F 66% 29.43 in 10.0 mi ENE 6.9 mph - N/A Thunderstorm Overcast
1:55 AM - - - N/A% 29.43 in 10.0 mi ENE 8.1 mph - N/A Rain Light Rain
2:15 AM - - - N/A% 29.42 in 10.0 mi NE 8.1 mph - N/A Rain Light Rain
2:35 AM 42.8 °F 41.1 °F 37.4 °F 81% 29.41 in 10.0 mi NE 3.5 mph - N/A Rain Rain
2:55 AM 42.8 °F 38.0 °F 37.4 °F 81% 29.42 in 10.0 mi ENE 8.1 mph - N/A Rain , Thunderstorm Light Thunderstorms and Rain
3:15 AM 42.8 °F 40.1 °F 37.4 °F 81% 29.42 in 7.0 mi ENE 4.6 mph - N/A Rain Rain
3:35 AM 41.0 °F - 37.4 °F 87% 29.42 in 3.0 mi Calm Calm - N/A Rain Rain
3:55 AM 41.0 °F - 37.4 °F 87% 29.42 in 1.8 mi Calm Calm - N/A Rain , Thunderstorm Thunderstorms and Rain
4:15 AM 41.0 °F - 37.4 °F 87% 29.42 in 2.0 mi Calm Calm - N/A Rain Rain
4:35 AM - - - N/A% 29.41 in 1.8 mi NNW 4.6 mph - N/A Rain Rain
4:55 AM - - - N/A% 29.41 in 5.0 mi Calm Calm - N/A Rain , Thunderstorm Rain
5:15 AM 41.0 °F - 41.0 °F 100% 29.42 in 1.8 mi Calm Calm - N/A Rain Rain
5:35 AM 41.0 °F - 39.2 °F 93% 29.44 in 1.8 mi Calm Calm - N/A Rain Rain
5:55 AM - - - N/A% 29.44 in 0.8 mi NNE 6.9 mph - N/A Rain Rain
6:15 AM - - - N/A% 29.45 in 0.8 mi NNE 9.2 mph - N/A Rain Heavy Rain
6:35 AM - - - N/A% 29.46 in 3.0 mi NNE 5.8 mph - N/A Rain Light Rain
6:55 AM - - - N/A% 29.48 in 1.8 mi NNE 4.6 mph - N/A Rain Rain
7:15 AM - - - N/A% 29.48 in 1.0 mi North 6.9 mph - N/A Rain Rain
7:35 AM - - - N/A% 29.49 in 2.0 mi North 5.8 mph - N/A Rain Rain
7:55 AM - - - N/A% 29.49 in 2.5 mi NNW 10.4 mph - N/A Rain Rain
8:15 AM 35.6 °F 30.7 °F 35.6 °F 100% 29.50 in 4.0 mi NW 5.8 mph - N/A Rain Light Rain
8:35 AM 35.6 °F 29.9 °F 33.8 °F 93% 29.51 in 4.0 mi NNW 6.9 mph - N/A   Overcast
8:55 AM 33.8 °F 24.3 °F 33.8 °F 100% 29.51 in 7.0 mi NW 13.8 mph 18.4 mph N/A Snow Light Snow
9:15 AM 33.8 °F 26.4 °F 32.0 °F 93% 29.52 in 5.0 mi NNW 9.2 mph - N/A Snow Light Snow
9:35 AM 33.8 °F 26.4 °F 32.0 °F 93% 29.53 in 3.0 mi NNW 9.2 mph - N/A Snow Light Snow
9:55 AM 33.8 °F 24.8 °F 32.0 °F 93% 29.53 in 1.0 mi NNW 12.7 mph - N/A Snow Light Snow
10:15 AM 33.8 °F 27.0 °F 32.0 °F 93% 29.53 in 1.2 mi NNW 8.1 mph - N/A Snow Light Snow
10:35 AM 33.8 °F 27.7 °F 32.0 °F 93% 29.54 in 3.0 mi NNW 6.9 mph - N/A Snow Light Snow
10:55 AM 33.8 °F 29.6 °F 32.0 °F 93% 29.54 in 2.0 mi WNW 4.6 mph - N/A Snow Light Snow
11:15 AM 33.8 °F 30.8 °F 32.0 °F 93% 29.55 in 2.0 mi WNW 3.5 mph - N/A Snow Light Snow
11:35 AM 33.8 °F 26.4 °F 32.0 °F 93% 29.55 in 2.0 mi WNW 9.2 mph - N/A Snow Light Snow
11:55 AM 33.8 °F 28.6 °F 32.0 °F 93% 29.56 in 1.8 mi West 5.8 mph - N/A Snow Light Snow
12:15 PM 33.8 °F 27.7 °F 32.0 °F 93% 29.55 in 2.0 mi WNW 6.9 mph - N/A Snow , Thunderstorm Light Thunderstorms and Snow
12:35 PM 33.8 °F 25.8 °F 32.0 °F 93% 29.55 in 2.0 mi WNW 10.4 mph - N/A Snow Light Snow
12:55 PM 33.8 °F 27.7 °F 32.0 °F 93% 29.54 in 2.5 mi NW 6.9 mph - N/A Snow Light Snow
1:15 PM 33.8 °F 24.8 °F 32.0 °F 93% 29.54 in 2.0 mi WNW 12.7 mph 17.3 mph N/A Snow , Thunderstorm Light Thunderstorms and Snow
1:35 PM 33.8 °F 28.6 °F 32.0 °F 93% 29.54 in 3.0 mi WNW 5.8 mph 18.4 mph N/A Snow Light Snow
2:15 PM 33.8 °F 25.8 °F 32.0 °F 93% 29.55 in 4.0 mi NW 10.4 mph - N/A Snow Light Snow
2:35 PM 33.8 °F 26.4 °F 33.8 °F 100% 29.55 in 7.0 mi NW 9.2 mph - N/A Snow Light Snow
2:55 PM 35.6 °F 27.5 °F 33.8 °F 93% 29.56 in 10.0 mi NNW 11.5 mph 16.1 mph N/A   Overcast
3:15 PM 35.6 °F 28.6 °F 33.8 °F 93% 29.56 in 5.0 mi NNW 9.2 mph 17.3 mph N/A Snow Light Snow
3:35 PM 33.8 °F 27.0 °F 33.8 °F 100% 29.57 in 4.0 mi NW 8.1 mph - N/A Snow Light Snow
3:55 PM 33.8 °F 27.7 °F 33.8 °F 100% 29.57 in 4.0 mi NW 6.9 mph - N/A Snow Light Snow
4:15 PM 35.6 °F 28.0 °F 33.8 °F 93% 29.57 in 5.0 mi NNW 10.4 mph - N/A Snow Light Snow
4:35 PM 35.6 °F 28.0 °F 33.8 °F 93% 29.58 in 4.0 mi NW 10.4 mph - N/A Snow Light Snow
4:55 PM 35.6 °F 27.5 °F 33.8 °F 93% 29.58 in 2.5 mi NNW 11.5 mph - N/A Snow Light Snow
5:15 PM 35.6 °F 29.2 °F 33.8 °F 93% 29.58 in 3.0 mi NW 8.1 mph - N/A Snow Light Snow
5:35 PM 35.6 °F 28.0 °F 33.8 °F 93% 29.60 in 2.5 mi NW 10.4 mph - N/A   Overcast
5:55 PM 35.6 °F 28.0 °F 33.8 °F 93% 29.60 in 3.0 mi NNW 10.4 mph - N/A   Overcast
6:15 PM 35.6 °F 28.6 °F 35.6 °F 100% 29.61 in 4.0 mi NNW 9.2 mph - N/A Rain Rain
6:35 PM 37.4 °F 29.3 °F 35.6 °F 93% 29.61 in 4.0 mi North 12.7 mph - N/A Rain Light Rain
6:55 PM 37.4 °F 30.3 °F 35.6 °F 93% 29.61 in 5.0 mi NNW 10.4 mph 16.1 mph N/A Rain Light Rain
7:15 PM 37.4 °F 31.4 °F 35.6 °F 93% 29.61 in 10.0 mi NNW 8.1 mph - N/A   Drizzle
7:35 PM 37.4 °F 30.3 °F 35.6 °F 93% 29.61 in 10.0 mi NNW 10.4 mph 17.3 mph N/A   Overcast
7:55 PM 37.4 °F 30.3 °F 35.6 °F 93% 29.61 in 10.0 mi NNW 10.4 mph 17.3 mph N/A   Overcast
8:15 PM 37.4 °F 29.3 °F 35.6 °F 93% 29.62 in 10.0 mi NNW 12.7 mph 16.1 mph N/A   Overcast
8:35 PM 37.4 °F 29.3 °F 35.6 °F 93% 29.62 in 10.0 mi NNW 12.7 mph - N/A   Overcast
8:55 PM 37.4 °F 29.8 °F 35.6 °F 93% 29.62 in 10.0 mi North 11.5 mph - N/A   Overcast
9:15 PM 37.4 °F 27.8 °F 35.6 °F 93% 29.62 in 10.0 mi North 17.3 mph 21.9 mph N/A   Overcast
9:35 PM 37.4 °F 29.3 °F 35.6 °F 93% 29.62 in 10.0 mi North 12.7 mph 21.9 mph N/A   Overcast
9:55 PM 37.4 °F 29.3 °F 35.6 °F 93% 29.62 in 10.0 mi NNW 12.7 mph 19.6 mph N/A   Overcast
10:15 PM 37.4 °F 29.3 °F 35.6 °F 93% 29.61 in 10.0 mi NNW 12.7 mph - N/A   Overcast
10:35 PM 37.4 °F 28.9 °F 35.6 °F 93% 29.60 in 10.0 mi NNW 13.8 mph 17.3 mph N/A   Overcast
10:55 PM 37.4 °F 29.3 °F 33.8 °F 87% 29.59 in 10.0 mi NNW 12.7 mph 16.1 mph N/A   Overcast
11:15 PM 37.4 °F 29.8 °F 33.8 °F 87% 29.60 in 10.0 mi NNW 11.5 mph 17.3 mph N/A   Overcast
11:35 PM 35.6 °F 26.6 °F 33.8 °F 93% 29.60 in 10.0 mi NNW 13.8 mph 21.9 mph N/A   Overcast
11:55 PM 35.6 °F 27.5 °F 33.8 °F 93% 29.60 in 10.0 mi NNW 11.5 mph - N/A   Overcast